Change the Weather History Date:

Tuesday, June 17, 2014

  Actual Average (KRXE) Record (KRXE)
Temperature  
Mean Temperature 42 °F 60 °F  
Max Temperature 48 °F 74 °F 87 °F (2013)
Min Temperature 37 °F 46 °F 34 °F (2011)
Degree Days  
Heating Degree Days 22 5  
Month to date heating degree days 119  
Since 1 June heating degree days 119  
Since 1 July heating degree days 8077  
Cooling Degree Days 0 1  
Month to date cooling degree days 5  
Year to date cooling degree days 9  
Since 1 June cooling degree days 5  
Moisture  
Dew Point 36 °F    
Average Humidity 78    
Maximum Humidity 100    
Minimum Humidity 50    
Precipitation  
Precipitation 0.10 in 0.04 in 0.75 in (1992)
Month to date precipitation 0.98  
Year to date precipitation 6.85  
Sea Level Pressure  
Sea Level Pressure 29.80 in    
Wind  
Wind Speed 8 mph (South)    
Max Wind Speed 14 mph    
Max Gust Speed 23 mph    
Visibility 9 miles    
Events Rain    
T = Trace of Precipitation, MM = Missing Value Source: NWS Daily Summary

Daily Weather History Graph

Daily Weather History Graph

Search for Another Location

Airport or City:

Trip Planner

Search our weather history database for the weather conditions in past years. The results will help you decide how hot, cold, wet, or windy it might be!

Date:

Astronomy

Jun. 17, 2014 Rise Set
Actual Time 5:41 AM MDT 9:08 PM MDT
Civil Twilight 5:05 AM MDT 9:44 PM MDT
Nautical Twilight 4:18 AM MDT 10:32 PM MDT
Astronomical Twilight 3:18 AM MDT 11:32 PM MDT
Moon No Moon Rise 11:09 AM MDT (6/17)
Length of Visible Light 16h 39m
Length of Day
15h 26m
Waning Gibbous, 73% of the Moon is Illuminated
Jun 17
Waning Gibbous
Jun 19
Last Quarter
Jun 27
New
Jul 5
First Quarter
Jul 12
Full

Hourly Weather History & Observations

Time (MDT) Temp. Windchill Dew Point Humidity Pressure Visibility Wind Dir Wind Speed Gust Speed Precip Events Conditions
12:01 AM 41.0 °F 34.3 °F 39.2 °F 93% 29.83 in 9.0 mi SE 11.5 mph 23.0 mph 0.00 in   Mostly Cloudy
12:56 AM 41.0 °F 38.0 °F 37.9 °F 89% 29.68 in 10.0 mi WSW 4.6 mph - 0.00 in   Scattered Clouds
1:38 AM 41.0 °F 38.0 °F 39.2 °F 93% 29.82 in 10.0 mi ESE 4.6 mph - 0.00 in Rain Light Rain
1:56 AM 41.0 °F 36.4 °F 39.9 °F 96% 29.66 in 7.0 mi SE 6.9 mph - 0.01 in Rain Light Rain
2:06 AM 41.0 °F 36.4 °F 39.2 °F 93% 29.82 in 6.0 mi SE 6.9 mph - 0.01 in Rain Light Rain
2:41 AM 41.0 °F 37.1 °F 41.0 °F 100% 29.81 in 3.0 mi SSE 5.8 mph - 0.03 in Rain Light Rain
2:56 AM 41.0 °F 39.0 °F 41.0 °F 100% 29.64 in 3.0 mi South 3.5 mph - 0.07 in Rain Light Rain
3:17 AM 42.8 °F 39.3 °F 41.0 °F 93% 29.83 in 7.0 mi SSW 5.8 mph - 0.01 in Rain Light Rain
3:56 AM 41.0 °F 34.7 °F 39.9 °F 96% 29.72 in 10.0 mi SW 10.4 mph - 0.02 in Rain Light Rain
4:03 AM 41.0 °F 35.2 °F 39.2 °F 93% 29.84 in 10.0 mi SW 9.2 mph - 0.00 in   Overcast
4:13 AM 41.0 °F 34.3 °F 39.2 °F 93% 29.85 in 10.0 mi SW 11.5 mph - 0.00 in   Overcast
4:27 AM 41.0 °F 34.3 °F 39.2 °F 93% 29.85 in 10.0 mi SW 11.5 mph - 0.00 in   Overcast
4:40 AM 41.0 °F 35.8 °F 39.2 °F 93% 29.85 in 10.0 mi SW 8.1 mph - 0.00 in   Overcast
4:56 AM 41.0 °F 35.2 °F 38.8 °F 92% 29.73 in 10.0 mi SSW 9.2 mph - 0.00 in   Overcast
5:56 AM 37.9 °F 30.9 °F 36.0 °F 93% 29.75 in 10.0 mi South 10.4 mph - 0.00 in   Overcast
6:56 AM 38.8 °F 32.1 °F 36.9 °F 93% 29.78 in 10.0 mi South 10.4 mph - N/A   Mostly Cloudy
7:56 AM 39.9 °F 35.1 °F 36.0 °F 86% 29.79 in 10.0 mi South 6.9 mph - N/A   Mostly Cloudy
8:56 AM 43.0 °F 36.0 °F 34.9 °F 73% 29.80 in 10.0 mi SSW 13.8 mph - N/A   Overcast
9:56 AM 43.9 °F 38.3 °F 34.0 °F 68% 29.80 in 10.0 mi South 10.4 mph - N/A   Overcast
10:56 AM 45.0 °F 42.6 °F 32.9 °F 63% 29.78 in 10.0 mi SSE 4.6 mph - N/A   Mostly Cloudy
11:56 AM 45.9 °F 42.3 °F 34.0 °F 63% 29.81 in 10.0 mi SSE 6.9 mph - N/A   Mostly Cloudy
12:56 PM 45.0 °F 41.2 °F 32.0 °F 60% 29.82 in 10.0 mi South 6.9 mph - N/A   Overcast
1:56 PM 45.9 °F 42.3 °F 34.0 °F 63% 29.83 in 10.0 mi East 6.9 mph - 0.00 in   Mostly Cloudy
2:56 PM 47.8 °F - 32.0 °F 54% 29.81 in 10.0 mi Calm Calm - N/A   Scattered Clouds
3:56 PM 46.9 °F - 31.1 °F 54% 29.82 in 10.0 mi WSW 5.8 mph - N/A   Mostly Cloudy
4:56 PM 48.9 °F - 31.1 °F 50% 29.81 in 10.0 mi WNW 5.8 mph - N/A   Partly Cloudy
5:56 PM 47.8 °F - 31.1 °F 52% 29.83 in 10.0 mi Variable 3.5 mph - N/A   Overcast
6:56 PM 47.8 °F - 32.0 °F 54% 29.83 in 10.0 mi SSW 9.2 mph - N/A   Mostly Cloudy
7:56 PM 46.9 °F - 32.9 °F 58% 29.87 in 10.0 mi SW 8.1 mph - N/A   Overcast
8:56 PM 45.0 °F 41.8 °F 34.0 °F 65% 29.87 in 10.0 mi South 5.8 mph - N/A   Overcast
9:56 PM 43.9 °F 38.8 °F 32.9 °F 65% 29.88 in 10.0 mi South 9.2 mph - N/A   Overcast